TimePDT,TemperatureF,Dew PointF,Humidity,Sea Level PressureIn,VisibilityMPH,Wind Direction,Wind SpeedMPH,Gust SpeedMPH,PrecipitationIn,Events,Conditions,WindDirDegrees,DateUTC
12:53 AM,35.1,24.1,64,30.42,10.0,SE,6.9,-,N/A,,Clear,140,2013-03-10 08:53:00
1:53 AM,32.0,23.0,69,30.42,10.0,SE,4.6,-,N/A,,Clear,130,2013-03-10 09:53:00
3:53 AM,35.1,24.1,64,30.40,10.0,SSE,9.2,-,N/A,,Clear,150,2013-03-10 10:53:00
5:53 AM,30.9,21.9,69,30.41,10.0,SSE,9.2,-,N/A,,Clear,160,2013-03-10 12:53:00
6:53 AM,30.9,21.9,69,30.42,10.0,SSE,9.2,-,N/A,,Clear,160,2013-03-10 13:53:00
7:53 AM,33.1,21.9,64,30.43,10.0,SSE,9.2,-,N/A,,Clear,160,2013-03-10 14:53:00
8:53 AM,37.9,23.0,55,30.40,10.0,South,6.9,-,N/A,,Partly Cloudy,170,2013-03-10 15:53:00
9:53 AM,44.1,23.0,43,30.39,10.0,South,5.8,-,N/A,,Clear,180,2013-03-10 16:53:00
10:53 AM,52.0,24.1,34,30.37,10.0,West,15.0,-,N/A,,Scattered Clouds,260,2013-03-10 17:53:00
11:53 AM,52.0,26.1,37,30.36,10.0,West,9.2,-,N/A,,Clear,280,2013-03-10 18:53:00
12:53 PM,55.0,24.1,30,30.34,10.0,West,12.7,-,N/A,,Mostly Cloudy,260,2013-03-10 19:53:00
1:53 PM,57.0,17.1,21,30.30,10.0,West,12.7,-,N/A,,Overcast,260,2013-03-10 20:53:00
2:53 PM,55.0,25.0,31,30.29,10.0,West,10.4,-,0.00,Rain,Light Rain,270,2013-03-10 21:53:00
3:53 PM,48.9,39.0,69,30.31,10.0,NW,9.2,-,0.00,Rain,Light Rain,320,2013-03-10 22:53:00
4:53 PM,46.9,37.0,68,30.32,9.0,Calm,Calm,-,0.03,Rain,Light Rain,0,2013-03-10 23:53:00
5:53 PM,46.0,39.9,79,30.31,10.0,SSE,6.9,-,0.02,Rain,Light Rain,160,2013-03-11 00:53:00
6:53 PM,45.0,39.0,80,30.30,10.0,SSE,6.9,-,0.00,,Overcast,150,2013-03-11 01:53:00
7:53 PM,45.0,39.0,80,30.30,10.0,South,6.9,-,N/A,,Mostly Cloudy,190,2013-03-11 02:53:00
8:53 PM,46.9,41.0,80,30.30,10.0,WSW,15.0,-,N/A,,Overcast,250,2013-03-11 03:53:00
9:53 PM,46.9,39.9,77,30.29,10.0,West,19.6,27.6,N/A,,Overcast,260,2013-03-11 04:53:00
10:53 PM,46.9,39.9,77,30.29,10.0,West,19.6,29.9,N/A,,Overcast,260,2013-03-11 05:53:00
11:53 PM,46.0,39.9,79,30.30,10.0,West,13.8,-,N/A,,Overcast,270,2013-03-11 06:53:00
12:53 AM,46.0,39.9,79,30.29,10.0,West,18.4,-,N/A,,Overcast,270,2013-03-11 07:53:00